LASARSAT

Last updated on Wed Nov 05 2025 00:03:48 GMT+0000 (Coordinated Universal Time)

1 62391U 24247Q 25308.62369781 .00025615 00000+0 82095-3 0 9995 2 62391 44.9781 70.5861 0005598 232.9098 127.1275 15.31954091 48716
UTC large
Height (km)
Speed (km/s)
/
Latitude / Longitude
Inclination (degrees)
Orbital Period (minutes)
Azimuth
Elevation
Range (km)
Doppler Factor

Next 0 passes for location: London (51.5072 / 0.1276)

Sorry there are no passes over London.